ZHANGZHENG-1 (CSES) (43194 NORAD) Tracking and Keplerian Element Data

This shows tracking and keplerian element data for the satellite.

Feedback or suggestion? Click here.




ElementValue
Catalog43194
NameZHANGZHENG-1 (CSES)
Epoch Orbit2518
Epoch Day198.91595023
Epoch Year2018
RAAN326.7532
Inclination97.3542
Eccentricity0.0018829
Argument of Perigee48.9011
Mean Anonmoly311.385
Mean Motion15.20945028
Decay Rate9.51E-06
L11 43194U 18015C 18198.91595023 .00000951 00000-0 45872-4 0 9992
L22 43194 97.3542 326.7532 0018829 48.9011 311.3850 15.20945028 25185

Live tracking and technical data element details for ZHANGZHENG-1 (CSES) (NORAD 43194). ZHANGZHENG-1 (CSES) can be tracked NOW for your location showing map with azimuth and elevation plus other details from your city location.

Track the satellite on the map from your city or location and see movement details for azimuth, elevation, latitude, longitude, range, height, and movement on the map or in text.







IsCatalogInMostPopularTable: catalog: 43194, numindb: 72
Update: records affected: 1



GetName: 43194 ZHANGZHENG-1 (CSES)

Hit Count: updated at: Thu, 19 Jul 2018 21:27:31 GMT